Home   Weather   La Ceiba   Past weeks

Flag for Honduras Past Weather in La Ceiba, Honduras — Yesterday and Last 2 Weeks

Now
72 °F

Passing clouds.


Feels Like: 69 °F
Forecast: 67 / 86 °F
Wind: No wind

Location: La Ceiba Airport

Current Time: Feb 26, 2017 at 1:57:37 am

Latest Report: Feb 26, 2017 at 12:00 am


Visibility: N/A

Pressure: 29.92 "Hg

Humidity: 88%

Dew Point: 68 °F

Location of La CeibaLocation

Past Weather in La Ceiba — Graph

°F

La Ceiba Temperature Yesterday

Maximum temperature yesterday: 86 °F (at 10:00 am)
Minimum temperature yesterday: 70 °F (at 12:00 am)
Average temperature yesterday: 79 °F

High & Low Weather Summary for the Past Weeks

 TemperatureHumidityPressure
High86 °F (Feb 19, 10:00 am)100% (Feb 11, 5:00 am)30.12 "Hg (Feb 11, 5:00 am)
Low61 °F (Feb 23, 6:00 am)62% (Feb 11, 11:00 am)29.74 "Hg (Feb 24, 3:00 pm)
Average77 °F81%29.93 "Hg
* Reported Feb 11 12:00 am — Feb 26 12:00 am, La Ceiba, Weather by CustomWeather, © 2017

Note: Actual official high and low records may vary slightly from our data, if they occured in-between our weather recording intervals... More about our weather records

Advertising

La Ceiba Weather History for the Previous 24 Hours

Scroll right to see more
 ConditionsComfort  
Time TempWeatherWind HumidityBarometerVisibility
12:00 am
Sun, Feb 26
72 °FPassing clouds.No wind88%29.92 "HgN/A
11:00 pm
Sat, Feb 25
72 °FPassing clouds.No wind94%29.92 "HgN/A
10:00 pm73 °FPassing clouds.5 mph94%29.92 "HgN/A
9:00 pm75 °FClear.No wind89%29.89 "HgN/A
8:00 pm77 °FPassing clouds.No wind83%29.89 "HgN/A
7:00 pm79 °FPassing clouds.No wind79%29.86 "HgN/A
6:00 pm81 °FPassing clouds.No wind74%29.86 "HgN/A
5:00 pm82 °FPassing clouds.5 mph74%29.83 "HgN/A
4:00 pm84 °FPassing clouds.7 mph74%29.83 "HgN/A
3:00 pm84 °FPassing clouds.7 mph74%29.83 "HgN/A
2:00 pm86 °FPassing clouds.9 mph70%29.83 "HgN/A
1:00 pm86 °FPassing clouds.7 mph70%29.86 "HgN/A
12:00 pm84 °FPassing clouds.7 mph74%29.89 "HgN/A
11:00 am84 °FPassing clouds.7 mph70%29.89 "HgN/A
10:00 am86 °FPassing clouds.No wind70%29.89 "HgN/A
9:00 am81 °FPassing clouds.2 mph79%29.89 "HgN/A
8:00 am77 °FPassing clouds.No wind83%29.89 "HgN/A
7:00 am72 °FPassing clouds.No wind94%29.86 "HgN/A
6:00 am70 °FMild.No wind94%29.83 "HgN/A
Weather by CustomWeather, © 2017

See weather overviewHow to use our weather pages